www.pogodaiklimat.ru

Погода и климат >> Архив погоды >> Россия >> Тверская область >> Торопец


ПОГОДА в Торопце

  • Прогноз погоды в Торопце
  • Монитор погоды в Торопце

АРХИВ ПОГОДЫ в Торопце

Время (UTC), дата Ветер
(напр.,м/с)
 
Видим.   Явления Облачность Т
(С)
Тd
(С)
f
(%)
Тe
(С)
Тes
(С)
Комфортность P
(гПа)
Po
(гПа)
Тmin
(С)
Tmax
(С)
R
(мм)
R24
(мм)
S
(см)
18 12.06 СВ 2 20 км 6/6 600 м
[Sc]
+18.5 +14.2 76 +20 +20 1020.8 998.8 +22.9 0.5
21 12.06 В 4 20 км 3/3 600 м
[Sc]
+16.5 +12.6 78 +16 +16 1022.1 999.9
00 13.06 В 3 20 км ясно +14.1 +9.9 76 +13 +13 1023.6 1001.2
03 13.06 В 3 20 км ясно +13.0 +8.4 74 +12 +13 1024.4 1001.9 +12.7
06 13.06 В 4 20 км 4/0
[Ci fib]
+16.3 +8.0 58 +16 +21 1024.8 1002.5 +12.7
09 13.06 ЮВ 4 20 км 4/0
[Ci fib]
+20.0 +10.4 54 +21 +31 комфорт 1024.2 1002.2
12 13.06 ЮВ 3 20 км 6/0
[Ci fib]
+22.1 +11.9 52 +24 +34 комфорт 1023.5 1001.8
15 13.06 ЮВ 3 20 км 6/0
[Ci fib]
+22.7 +12.1 51 +25 +29 комфорт 1021.5 999.8
18 13.06 ЮВ 3 20 км 4/0
[Ci fib]
+20.5 +12.6 60 +23 +23 комфорт 1020.8 999.0 +23.0
21 13.06 ЮВ 3 20 км 4/0
[Ci fib]
+17.7 +12.3 71 +18 +18 1020.7 998.6
00 14.06 ЮВ 3 20 км 4/0
[Ci fib]
+16.8 +12.8 77 +17 +17 1020.1 998.0
03 14.06 Ю 2 20 км 8/6 600 м
[Sc Ac trans]
+16.9 +14.0 83 +17 +17 1018.6 996.5 +16.0
06 14.06 Ю 1 20 км гроза без осадков 6/6 600 м
[Cb cap]
+21.6 +16.8 74 +26 +29 душно 1016.7 995.0 +16.0
09 14.06 З 3 20 км {гроза} 9/8 600 м
[Sc Ci sp]
+26.3 +17.3 58 +30 +33 душно 1015.7 994.4
12 14.06 З 3 20 км {гроза} 9/9 600 м
[Sc]
+26.9 +18.6 60 +32 +33 очень
душно
1015.0 993.8
15 14.06 СЗ 3 20 км 8/4 600 м
[Sc Ci fib]
+25.5 +16.3 57 +29 +31 душно 1014.3 993.0
18 14.06 СЗ 1 20 км 8/4 600 м
[Cb cap Ci fib]
+23.4 +16.6 66 +28 +29 душно 1014.4 993.0 +27.5
21 14.06 СЗ 1 20 км 10/3 600 м
[Sc Ci fib]
+19.0 +16.2 84 +22 +22 комфорт 1015.5 993.7
00 15.06 СЗ 2 20 км 9/9 600 м
[Cb cap]
+18.8 +16.2 85 +20 +20 1015.6 993.8
03 15.06 СЗ 2 20 км 9/9 600 м
[Cb cap]
+17.7 +15.4 86 +18 +18 1015.8 993.9 +17.7
06 15.06 СЗ 4 20 км 8/8 600 м
[Cb cap]
+19.2 +14.7 75 +21 +22 комфорт 1016.4 994.5 +17.3
09 15.06 СЗ 4 20 км 6/6 600 м
[Sc]
+21.4 +12.5 57 +24 +28 комфорт 1016.3 994.6
12 15.06 СЗ 4 20 км 4/4 600 м
[Sc]
+21.7 +12.4 55 +24 +29 комфорт 1016.0 994.3
15 15.06 С 3 20 км 8/8 600 м
[Sc]
+20.3 +11.9 58 +22 +23 комфорт 1016.4 994.6
18 15.06 З 2 20 км 3/3 600 м
[Sc]
+19.3 +12.6 65 +21 +21 комфорт 1015.9 994.1 +21.9
21 15.06 З 1 20 км ясно +13.6 +12.1 91 +14 +14 1016.4 994.1
00 16.06 штиль 0 20 км ясно +11.5 +10.5 94 +11 +11 1016.4 994.0
03 16.06 СЗ 1 20 км ясно +13.7 +12.2 91 +14 +15 1016.2 994.0 +11.0
06 16.06 С 1 20 км 3/0
[Ci fib]
+19.2 +12.2 64 +21 +30 комфорт 1016.5 994.7 +11.0
09 16.06 СЗ 2 20 км 4/4 600 м
[Cu hum]
+22.2 +10.4 47 +24 +33 комфорт 1016.5 994.9
12 16.06 СЗ 2 20 км 4/4 600 м
[Cu hum]
+23.6 +8.4 38 +24 +32 комфорт 1015.5 994.0
15 16.06 З 1 20 км 3/3 600 м
[Cu hum]
+24.5 +8.1 35 +25 +29 комфорт 1014.6 993.2
18 16.06 штиль 0 20 км ясно +22.3 +11.7 51 +25 +25 комфорт 1014.7 993.1 +24.5
21 16.06 штиль 0 20 км 3/0
[Ci fib]
+13.7 +12.2 91 +13 +13 1015.3 993.1
00 17.06 штиль 0 20 км ясно +11.8 +10.8 94 +11 +11 1015.5 993.1
03 17.06 штиль 0 20 км 8/8 600 м
[Cb cap]
+16.0 +13.6 86 +16 +16 1015.0 992.9 +11.8
06 17.06 ЮЗ 1 20 км 8/3 600 м
[Sc Ac trans Ci fib]
+20.9 +14.4 66 +25 +29 комфорт 1014.6 992.9 +11.8
09 17.06 СЗ 2 20 км 8/3 600 м
[Cu Sc Ac trans Ci fib]
+24.8 +11.6 44 +26 +33 жарко 1013.7 992.3
12 17.06 З 2 20 км 9/9 600 м
[Sc]
+22.4 +14.4 61 +26 +27 жарко 1013.9 992.4
15 17.06 З 1 10 км слаб. ливневой дождь 9/9 600 м
[Cb cap]
+19.4 +15.4 78 +22 +23 комфорт 1014.5 992.7 0.1
18 17.06 С 1 20 км {ливн. осадки} 9/9 600 м
[Sc]
+19.0 +15.4 80 +21 +21 комфорт 1013.8 992.1 +24.8 0.1
21 17.06 З 1 20 км 9/9 600 м
[Cb cap]
+17.1 +15.3 89 +18 +18 1014.8 992.9
00 18.06 СЗ 1 20 км {ливн. осадки} 10/10 600 м
[Cb cap]
+16.0 +14.1 88 +17 +17 1015.2 993.2
03 18.06 З 1 20 км 9/9 600 м
[Sc]
+16.1 +14.1 88 +17 +17 1015.9 993.9 +15.6 1
06 18.06 СЗ 2 20 км 3/3 600 м
[Sc]
+19.2 +15.0 77 +21 +27 комфорт 1016.2 994.4 +15.6 1
09 18.06 СЗ 4 20 км 4/4 600 м
[Cu Sc]
+22.1 +13.2 57 +25 +31 комфорт 1016.5 994.9
12 18.06 СЗ 3 20 км 1/1 600 м
[Cu hum]
+23.6 +7.6 36 +24 +34 комфорт 1016.4 994.9
15 18.06 З 3 20 км 1/1 600 м
[Cu hum]
+23.4 +9.0 40 +25 +28 комфорт 1016.0 994.5
18 18.06 З 1 20 км ясно +21.0 +10.6 51 +24 +24 комфорт 1016.4 994.7 +24.2
21 18.06 штиль 0 20 км ясно +13.0 +11.1 88 +12 +12 1017.8 995.4
00 19.06 ЮЗ 1 20 км ясно +10.6 +9.6 94 +10 +10 1018.8 996.3
03 19.06 штиль 0 20 км ясно +15.8 +11.6 76 +16 +17 1018.7 996.6 +10.0
06 19.06 СЗ 1 20 км ясно +21.1 +12.7 59 +23 +33 комфорт 1018.5 996.8 +10.0
09 19.06 З 2 20 км 3/3 600 м
[Sc]
+24.4 +12.3 47 +26 +37 жарко 1018.2 996.7
12 19.06 З 1 20 км ясно +26.5 +11.1 38 +27 +43 жарко 1017.3 996.0

 

Местоположение метеостанции Торопец (Тверская область, Россия): широта 56.48 долгота 31.63 высота над уровнем моря 187 м.

В архиве по умолчанию представлена погода в Торопце за последнюю неделю. Архивные данные за месяц целиком и за предыдущие месяцы, начиная с января 2011 года, Вы можете получить, выбрав интересующий диапазон дат из раскрывающегося списка и нажав кнопку "Ввод!".


*Определитесь, кто Вы:
робот инопланетянин человек

Внимание! Время в таблицах - всемирное. Для получения местного времени необходимо прибавить поправку, которая равна 3 ч.

Смотрите также архив погоды в соседних городах и на ближайших метеорологических станциях:

Погода в Великих Луках (Псковская область, Россия) (64 км)
Погода в Холме (Новгородская область, Россия) (79 км)
Погода в Лесном Заповеднике (Тверская область, Россия) (80 км)
Погода в Велиже (Смоленская область, Россия) (100 км)
Погода в Пржевальском (Смоленская область, Россия) (107 км)
Погода в Белом (Тверская область, Россия) (108 км)
Погода в Осташкове (Тверская область, Россия) (114 км)
Погода в Сущево (Псковская область, Россия) (120 км)
Погода в Езерище (Витебская область, Беларусь) (124 км)
Погода в Демидове (Смоленская область, Россия) (134 км)

Пояснения к столбцам:

Ветер - указаны скорость ветра в м/с - средняя за 10 мин, порывы в срок и между сроками (в фигурных скобках) и направление, откуда дует ветер: С - северный, СВ - северо-восточный, В - восточный, ЮВ - юго-восточный, Ю - южный, ЮЗ - юго-западный, З - западный, СЗ - северо-западный.
Видимость - горизонтальная дальность видимости в метрах или километрах. При видимости от 1 до 10 км при отсутствии осадков обычно наблюдается дымка, при ухудшении видимости до 1 км и менее - туман. В сухую погоду видимость может ухудшаться дымом, пылью или мглою.
Явления - указаны атмосферные явления, наблюдавшиеся в срок или в последний час перед сроком; фигурными скобками обозначены явления, наблюдавшиеся между сроками (за 1-3 часа до срока); квадратными скобками обозначены град или гололедные отложения с указанием их диаметра в мм.
Облачность - указаны через наклонную черту общая и нижняя облачность в баллах и высота нижней границы облаков в метрах; квадратными скобками обозначены формы облаков: Ci - перистые, Cs - перисто-слоистые, Cc - перисто-кучевые, Ac - высококучевые, As - высокослоистые, Sc - слоисто-кучевые, Ns - слоисто-дождевые, Cu - кучевые, Cb - кучево-дождевые. Подробнее классификацию облаков см. в Атласе облаков (PDF).
T - Температура воздуха - температура, измеренная на высоте 2 м над землей.
Td - Температура точки росы - температура, при понижении до которой содержащийся в воздухе водяной пар достигнет насыщения.
f - Относительная влажность воздуха - влажноcть воздуха, измеренная на высоте 2 м над землей.
Te - Эффективная температура - температура, которую ощущает одетый по сезону человек в тени. Характеристика душности погоды. При расчете учитывается влияние влажности воздуха и скорости ветра на теплоощущения человека.
Tes - Эффективная температура на солнце - температура, которую ощущает человек, с поправкой на солнечный нагрев. Характеристика знойности погоды. Зависит от высоты солнца над горизонтом, облачности и скорости ветра. Ночью, в пасмурную погоду, а также при ветре 12 м/с и более поправка равна нулю.
P - Атмосферное давление - приведенное к уровню моря атмосферное давление.
Po - Атмосферное давление - измеренное на уровне метеостанции атмосферное давление.
Tmin - Минимальная температура - минимум температуры воздуха на высоте 2 м над землей.
Tmax - Максимальная температура - максимум температуры воздуха на высоте 2 м над землей.
R - Количество осадков - Количество выпавших осадков за период времени, мм. При наведении курсора мыши на число - период времени, за который выпало указанное количество осадков.
R24 - Количество осадков - Количество выпавших осадков за 24 часа, мм.
S - Снежный покров - Высота снежного покрова, см. При наведении курсора мыши на число - состояние снежного покрова и степень покрытия местности в баллах.